period_start,C,m1,H,J0,J1,J2,J3,J4,J5,JA,JB,JC,JD,JJ,JK,JN,#
2016-06-09 00:03:59,-3333.30,0.00,0.00,29.83,33.43,31.15,12.15,41.62,1015.04,1811.09,3201.68,2792.10,3172.88,525.44,509.43,0.01,0000 0000 0000 0000 000000
2016-06-09 00:09:00,0.00,0.00,0.00,29.86,33.28,32.48,13.95,46.36,1015.25,2009.90,3548.49,3096.62,3519.66,599.75,581.50,0.06,0000 0000 0000 0000 000000
2016-06-09 00:14:01,0.01,0.00,0.00,29.92,33.16,33.36,13.96,46.08,1015.58,2009.96,3546.62,3095.73,3518.32,599.44,581.30,0.11,0000 0000 0000 0000 000000
2016-06-09 00:19:02,0.02,0.01,0.00,29.92,33.07,34.01,14.04,46.15,1015.64,2009.99,3545.72,3095.08,3517.73,599.86,581.73,0.16,0000 0000 0000 0000 000000
2016-06-09 00:24:03,0.03,0.01,0.00,29.99,33.01,34.40,13.96,46.10,1015.64,2010.01,3544.72,3094.88,3516.89,599.73,581.54,0.21,0000 0000 0000 0000 000000
2016-06-09 00:29:05,0.07,0.01,0.00,30.09,32.98,34.58,14.01,46.13,1015.65,2010.44,3543.69,3094.16,3516.11,599.92,581.44,0.26,0000 0000 0000 0000 000000
2016-06-09 00:34:06,0.08,0.02,0.00,30.21,32.97,34.69,14.04,46.23,1015.64,2010.92,3542.54,3093.78,3515.32,599.92,581.42,0.31,0000 0000 0000 0000 000000
2016-06-09 00:39:07,0.05,0.02,0.00,30.34,32.99,34.82,13.96,46.13,1015.64,2010.98,3541.38,3093.02,3514.27,599.93,581.05,0.36,0000 0000 0000 0000 000000
2016-06-09 00:44:08,0.06,0.02,0.00,30.46,33.02,34.96,13.95,45.95,1015.62,2010.99,3540.08,3092.23,3513.25,599.93,580.82,0.41,0000 0000 0000 0000 000000
2016-06-09 00:49:10,0.05,0.02,0.00,30.55,33.07,35.10,13.96,46.07,1015.60,2010.95,3538.66,3091.38,3512.13,599.59,580.30,0.46,0000 0000 0000 0000 000000
2016-06-09 00:54:11,0.05,0.03,0.00,30.65,33.13,35.23,13.92,45.85,1015.49,2010.84,3537.17,3090.45,3510.73,599.57,579.97,0.51,0000 0000 0000 0000 000000
2016-06-09 00:59:13,0.04,0.03,0.00,30.73,33.19,35.37,13.96,45.68,1015.34,2010.56,3535.60,3089.37,3509.48,599.93,580.07,0.56,0000 0000 0000 0000 000000
2016-06-09 01:04:14,0.03,0.03,0.00,30.82,33.26,35.50,13.98,45.92,1015.22,2010.17,3533.92,3088.40,3508.14,599.98,579.85,0.61,0000 0000 0000 0000 000000
2016-06-09 01:09:15,0.06,0.03,0.00,30.90,33.34,35.64,14.07,45.86,1015.39,2010.01,3532.27,3087.26,3506.75,600.19,580.02,0.66,0000 0000 0000 0000 000000
2016-06-09 01:14:16,0.08,0.04,0.00,30.99,33.42,35.77,14.03,45.47,1015.60,2009.98,3530.47,3085.98,3505.05,600.17,579.96,0.71,0000 0000 0000 0000 000000
2016-06-09 01:19:18,0.05,0.04,0.00,31.07,33.50,35.88,14.03,45.90,1015.64,2009.73,3528.58,3084.74,3503.59,600.17,579.80,0.76,0000 0000 0000 0000 000000
2016-06-09 01:24:19,0.03,0.04,0.00,31.14,33.59,35.99,13.97,45.58,1015.65,2009.07,3526.84,3083.51,3502.02,599.67,579.22,0.81,0000 0000 0000 0000 000000
2016-06-09 01:29:20,0.08,0.05,0.00,31.21,33.68,36.10,13.90,45.41,1015.78,2009.00,3525.00,3082.26,3500.48,599.79,579.30,0.86,0000 0000 0000 0000 000000
2016-06-09 01:34:21,0.06,0.05,0.00,31.29,33.76,36.21,14.00,45.49,1016.10,2008.83,3523.27,3080.98,3498.77,600.16,579.68,0.91,0000 0000 0000 0000 000000
2016-06-09 01:39:23,0.07,0.05,0.00,31.35,33.85,36.32,13.96,45.38,1016.28,2008.11,3520.84,3079.18,3496.65,599.96,579.45,0.96,0000 0000 0000 0000 000000
2016-06-09 01:44:24,0.27,0.06,0.00,31.40,33.94,36.42,13.95,45.42,1016.05,2008.01,3516.28,3074.77,3491.41,599.96,579.23,1.01,0000 0000 0000 0000 000000
2016-06-09 01:49:25,0.27,0.08,0.00,31.47,34.02,36.51,13.97,45.17,1016.19,2007.97,3511.41,3070.47,3486.27,600.07,579.35,1.06,0000 0000 0000 0000 000000
2016-06-09 01:54:26,0.16,0.09,0.00,31.52,34.10,36.60,13.92,45.48,1016.56,2007.46,3506.83,3066.51,3481.55,599.84,579.22,1.11,0000 0000 0000 0000 000000
2016-06-09 01:59:28,0.14,0.09,0.00,31.58,34.18,36.69,14.03,45.38,1016.62,2007.01,3503.42,3063.62,3478.16,600.05,579.28,1.16,0000 0000 0000 0000 000000
2016-06-09 02:04:29,0.22,0.10,0.00,31.63,34.25,36.78,13.96,45.38,1016.63,2006.94,3499.53,3060.25,3474.23,599.83,579.00,1.21,0000 0000 0000 0000 000000
2016-06-09 02:09:30,0.12,0.11,0.00,31.69,34.31,36.86,13.98,45.17,1016.79,2006.41,3495.59,3056.86,3470.25,599.90,579.08,1.26,0000 0000 0000 0000 000000
2016-06-09 02:14:31,0.18,0.12,0.00,31.74,34.38,36.94,14.02,45.15,1017.10,2006.01,3491.70,3053.84,3466.67,600.16,579.40,1.31,0000 0000 0000 0000 000000
2016-06-09 02:19:32,0.12,0.13,0.00,31.78,34.44,37.01,13.94,44.84,1017.11,2005.99,3488.72,3051.70,3464.17,599.82,578.98,1.36,0000 0000 0000 0000 000000
2016-06-09 02:24:33,0.04,0.13,0.00,31.83,34.51,37.09,13.94,45.08,1017.11,2005.48,3486.39,3049.91,3462.05,599.98,579.10,1.41,0000 0000 0000 0000 000000
2016-06-09 02:29:35,0.07,0.13,0.00,31.85,34.57,37.16,13.89,44.80,1017.11,2005.05,3484.42,3048.49,3460.31,600.04,579.04,1.46,0000 0000 0000 0000 000000
2016-06-09 02:34:36,0.10,0.14,0.00,31.89,34.62,37.22,13.97,45.14,1017.12,2004.99,3481.97,3046.90,3458.45,600.21,579.18,1.51,0000 0000 0000 0000 000000
2016-06-09 02:39:37,0.07,0.14,0.00,31.94,34.68,37.29,13.92,44.89,1017.26,2004.76,3479.41,3045.36,3456.65,600.17,579.13,1.56,0000 0000 0000 0000 000000
2016-06-09 02:44:38,0.06,0.15,0.00,31.95,34.73,37.35,13.91,44.80,1017.55,2004.10,3476.94,3043.52,3454.55,599.65,578.69,1.61,0000 0000 0000 0000 000000
2016-06-09 02:49:40,0.10,0.15,0.00,31.96,34.79,37.41,13.95,44.86,1017.59,2004.00,3474.27,3041.93,3452.72,600.16,579.30,1.66,0000 0000 0000 0000 000000
2016-06-09 02:54:41,0.10,0.16,0.00,32.00,34.84,37.45,13.92,44.83,1017.66,2003.98,3471.81,3040.38,3450.86,600.12,579.06,1.71,0000 0000 0000 0000 000000
2016-06-09 02:59:42,0.07,0.16,0.00,32.00,34.89,37.50,13.97,44.79,1017.70,2003.73,3469.71,3038.69,3448.91,600.20,579.27,1.76,0000 0000 0000 0000 000000
2016-06-09 03:04:44,0.08,0.16,0.00,32.01,34.94,37.55,13.99,44.74,1017.70,2003.15,3467.12,3036.66,3446.58,599.86,578.91,1.81,0000 0000 0000 0000 000000
2016-06-09 03:09:45,0.17,0.17,0.00,32.02,34.99,37.58,13.99,44.76,1018.06,2003.00,3463.44,3034.30,3443.86,600.03,579.09,1.86,0000 0000 0000 0000 000000
2016-06-09 03:14:46,0.17,0.18,0.00,32.02,35.03,37.62,13.97,44.63,1018.08,2003.00,3459.48,3031.85,3440.99,600.02,579.28,1.91,0000 0000 0000 0000 000000
2016-06-09 03:19:47,0.07,0.19,0.00,32.03,35.07,37.66,14.02,44.85,1018.06,2002.92,3457.18,3030.14,3439.08,600.14,579.35,1.96,0000 0000 0000 0000 000000
2016-06-09 03:24:48,0.02,0.19,0.00,32.02,35.11,37.68,13.99,45.19,1018.08,2002.40,3455.72,3028.90,3437.63,600.11,579.41,2.01,0000 0000 0000 0000 000000
2016-06-09 03:29:50,0.03,0.19,0.00,32.02,35.15,37.72,14.02,45.02,1018.08,2002.04,3454.63,3027.94,3436.51,600.29,579.54,2.06,0000 0000 0000 0000 000000
2016-06-09 03:34:51,0.06,0.19,0.00,32.00,35.19,37.75,13.93,44.82,1018.08,2002.00,3453.50,3026.91,3435.26,599.85,579.23,2.11,0000 0000 0000 0000 000000
2016-06-09 03:39:52,0.10,0.20,0.00,32.00,35.21,37.77,13.99,44.79,1018.13,2002.00,3451.78,3025.38,3433.39,600.40,579.71,2.16,0000 0000 0000 0000 000000
2016-06-09 03:44:53,0.09,0.20,0.00,31.99,35.24,37.80,13.96,44.71,1018.40,2001.94,3449.91,3023.68,3431.36,600.08,579.47,2.21,0000 0000 0000 0000 000000
2016-06-09 03:49:55,0.07,0.20,0.00,31.98,35.27,37.81,14.07,44.92,1018.56,2001.77,3448.40,3022.09,3429.57,600.24,579.89,2.26,0000 0000 0000 0000 000000
2016-06-09 03:54:56,0.04,0.21,0.00,31.97,35.30,37.84,13.99,44.63,1018.57,2001.43,3446.78,3020.71,3427.86,600.09,579.78,2.32,0000 0000 0000 0000 000000
2016-06-09 03:59:57,0.04,0.21,0.00,31.97,35.32,37.85,14.08,45.06,1018.57,2001.06,3445.55,3019.65,3426.64,600.27,579.88,2.37,0000 0000 0000 0000 000000
2016-06-09 04:04:58,0.05,0.21,0.00,31.95,35.35,37.87,13.93,44.83,1018.58,2001.00,3444.47,3018.60,3425.43,599.67,579.38,2.42,0000 0000 0000 0000 000000
2016-06-09 04:10:00,0.06,0.22,0.00,31.92,35.36,37.88,14.00,44.83,1018.59,2001.00,3443.24,3017.48,3424.15,599.28,579.03,2.47,0000 0000 0000 0000 000000
2016-06-09 04:15:01,0.14,0.22,0.00,31.90,35.39,37.90,14.05,44.74,1018.65,2000.98,3441.07,3015.36,3421.61,600.04,579.76,2.52,0000 0000 0000 0000 000000
2016-06-09 04:20:02,0.13,0.23,0.00,31.88,35.40,37.91,13.93,44.73,1018.84,2000.91,3438.62,3012.90,3418.78,599.54,579.51,2.57,0000 0000 0000 0000 000000
2016-06-09 04:25:03,0.06,0.23,0.00,31.86,35.42,37.91,14.03,44.81,1018.97,2000.64,3436.87,3011.18,3416.77,600.27,580.22,2.62,0000 0000 0000 0000 000000
2016-06-09 04:30:05,0.05,0.24,0.00,31.84,35.42,37.93,14.03,44.87,1019.04,2000.31,3435.37,3009.73,3415.10,600.10,580.34,2.67,0000 0000 0000 0000 000000
2016-06-09 04:35:06,0.06,0.24,0.00,31.81,35.45,37.93,14.04,44.69,1019.06,2000.08,3433.97,3008.49,3413.54,600.20,580.37,2.72,0000 0000 0000 0000 000000
2016-06-09 04:51:08,0.00,0.00,0.00,31.75,35.62,36.36,12.72,41.83,1018.81,1870.25,3313.11,2882.69,3277.53,549.11,530.93,0.01,0000 0000 0000 0000 000000
2016-06-09 04:56:09,0.00,0.00,0.00,31.90,35.56,37.12,14.00,45.60,1019.05,2000.64,3540.53,3082.17,3505.12,599.83,579.91,0.06,0000 0000 0000 0000 000000
2016-06-09 05:01:10,0.00,0.00,0.00,31.92,35.51,37.40,14.01,45.60,1019.12,2000.11,3537.86,3080.60,3503.13,600.20,580.21,0.11,0000 0000 0000 0000 000000
2016-06-09 05:06:12,0.01,0.00,0.00,31.77,35.48,37.60,14.12,45.70,1019.51,2000.02,3536.67,3079.87,3502.03,600.31,580.95,0.16,0000 0000 0000 0000 000000
2016-06-09 05:11:13,0.03,0.01,0.00,31.68,35.45,37.79,14.01,45.44,1019.51,2000.01,3535.84,3079.07,3501.08,599.95,580.62,0.21,0000 0000 0000 0000 000000
2016-06-09 05:16:14,0.02,0.01,0.00,31.63,35.43,37.91,14.06,45.49,1019.51,2000.04,3535.13,3078.94,3500.64,599.68,580.54,0.26,0000 0000 0000 0000 000000
2016-06-09 05:21:15,0.04,0.01,0.00,31.56,35.41,37.97,14.03,45.33,1019.54,2000.03,3534.33,3078.16,3499.63,599.54,580.41,0.31,0000 0000 0000 0000 000000
2016-06-09 05:26:17,0.04,0.01,0.00,31.53,35.40,38.03,14.07,45.26,1019.55,2000.08,3533.46,3077.45,3498.94,599.83,580.85,0.36,0000 0000 0000 0000 000000
2016-06-09 05:31:18,0.11,0.01,0.00,31.50,35.39,38.00,14.04,45.25,1019.55,2000.17,3531.03,3075.98,3497.32,599.59,580.56,0.41,0000 0000 0000 0000 000000
2016-06-09 05:36:19,1.42,0.07,0.00,31.45,35.37,37.96,14.10,45.23,1019.99,2000.08,3499.53,3058.04,3477.18,600.32,581.63,0.46,0000 0000 0000 0000 000000
2016-06-09 05:41:20,0.09,0.09,0.00,31.42,35.35,37.98,14.17,45.43,1019.84,2000.14,3493.04,3054.09,3472.69,600.12,581.55,0.51,0000 0000 0000 0000 000000
2016-06-09 05:46:22,0.06,0.10,0.00,31.38,35.34,37.99,14.06,45.69,1020.05,2000.25,3491.82,3053.32,3471.73,600.06,581.65,0.56,0000 0000 0000 0000 000000
2016-06-09 05:51:23,0.11,0.10,0.00,31.34,35.32,38.02,14.03,45.08,1020.09,2000.39,3489.84,3051.80,3470.16,599.53,581.23,0.61,0000 0000 0000 0000 000000
2016-06-09 05:56:24,0.06,0.10,0.00,31.29,35.30,37.97,14.21,45.41,1020.40,2000.51,3488.72,3050.90,3468.97,600.08,581.88,0.66,0000 0000 0000 0000 000000
2016-06-09 06:01:25,0.08,0.11,0.00,31.26,35.29,38.03,14.16,45.33,1020.49,2000.84,3487.64,3050.06,3468.01,599.93,582.06,0.71,0000 0000 0000 0000 000000
2016-06-09 06:06:27,0.05,0.11,0.00,31.21,35.26,38.12,14.16,45.43,1020.34,2000.93,3486.76,3049.30,3467.13,600.03,582.21,0.76,0000 0000 0000 0000 000000
2016-06-09 06:11:28,0.10,0.12,0.00,31.16,35.25,38.11,14.14,45.23,1020.34,2000.96,3485.05,3048.12,3465.80,600.01,582.19,0.81,0000 0000 0000 0000 000000
2016-06-09 06:16:29,0.11,0.12,0.00,31.11,35.22,38.13,14.10,45.27,1020.54,2000.99,3482.36,3046.05,3463.45,600.11,582.42,0.86,0000 0000 0000 0000 000000
2016-06-09 06:21:31,0.10,0.13,0.00,31.07,35.20,38.09,14.15,45.28,1020.85,2000.99,3480.55,3044.63,3461.82,600.06,582.68,0.91,0000 0000 0000 0000 000000
2016-06-09 06:26:32,0.01,0.13,0.00,31.04,35.17,38.09,14.11,45.06,1020.87,2001.00,3479.74,3043.99,3461.01,599.82,582.53,0.96,0000 0000 0000 0000 000000
2016-06-09 06:31:34,0.02,0.13,0.00,30.99,35.14,38.06,14.14,45.26,1021.01,2001.04,3479.05,3043.68,3460.62,599.84,582.57,1.01,0000 0000 0000 0000 000000
2016-06-09 06:36:35,0.05,0.13,0.00,30.93,35.11,38.05,14.14,45.01,1021.04,2001.21,3478.50,3043.04,3460.03,599.90,582.84,1.06,0000 0000 0000 0000 000000
2016-06-09 06:41:36,0.08,0.14,0.00,30.88,35.08,38.03,14.23,45.18,1020.99,2001.49,3477.49,3042.44,3459.17,600.24,583.46,1.11,0000 0000 0000 0000 000000
2016-06-09 06:46:38,0.07,0.14,0.00,30.83,35.05,37.98,14.15,45.25,1020.70,2001.77,3476.20,3041.60,3458.10,600.10,583.12,1.16,0000 0000 0000 0000 000000
2016-06-09 06:51:39,0.02,0.14,0.00,30.76,35.02,37.93,14.06,44.99,1020.58,2001.95,3476.00,3041.30,3458.00,599.91,582.90,1.21,0000 0000 0000 0000 000000
2016-06-09 06:56:41,0.00,0.14,0.00,30.72,34.99,37.89,14.17,45.32,1020.54,2001.99,3475.91,3041.02,3457.88,600.52,583.65,1.26,0000 0000 0000 0000 000000
2016-06-09 07:01:42,0.02,0.15,0.00,30.66,34.95,37.84,14.10,44.98,1020.80,2001.99,3475.18,3040.99,3457.10,599.67,583.07,1.31,0000 0000 0000 0000 000000
2016-06-09 07:06:43,0.00,0.15,0.00,30.62,34.92,37.82,14.24,44.88,1021.01,2002.01,3475.00,3040.81,3457.00,600.30,583.95,1.36,0000 0000 0000 0000 000000
2016-06-09 07:11:44,0.04,0.15,0.00,30.57,34.88,37.77,14.16,44.96,1021.24,2002.09,3474.66,3040.21,3456.90,599.82,583.66,1.41,0000 0000 0000 0000 000000
2016-06-09 07:16:45,0.07,0.15,0.00,30.52,34.84,37.73,14.20,45.25,1020.99,2002.57,3474.09,3040.01,3456.36,600.06,583.87,1.46,0000 0000 0000 0000 000000
2016-06-09 07:21:47,0.10,0.15,0.00,30.47,34.81,37.69,14.16,45.12,1021.65,2002.88,3472.96,3038.91,3455.06,600.25,584.52,1.51,0000 0000 0000 0000 000000
2016-06-09 07:26:48,0.08,0.16,0.00,30.44,34.76,37.63,14.18,45.11,1021.72,2002.97,3471.55,3037.54,3453.48,600.02,584.37,1.56,0000 0000 0000 0000 000000
2016-06-09 07:31:49,0.01,0.16,0.00,30.40,34.73,37.58,14.23,45.22,1021.49,2003.00,3471.01,3037.00,3453.00,600.32,584.57,1.61,0000 0000 0000 0000 000000
2016-06-09 07:36:51,0.00,0.16,0.00,30.37,34.69,37.55,14.15,45.21,1021.22,2003.01,3471.00,3037.00,3452.99,599.82,584.00,1.66,0000 0000 0000 0000 000000
2016-06-09 07:41:52,0.00,0.16,0.00,30.34,34.66,37.52,14.13,45.21,1021.49,2003.06,3471.00,3037.00,3452.98,599.80,584.22,1.71,0000 0000 0000 0000 000000
2016-06-09 07:46:53,0.02,0.16,0.00,30.29,34.62,37.46,14.18,45.44,1021.49,2003.25,3470.98,3037.00,3452.98,600.03,584.45,1.76,0000 0000 0000 0000 000000
2016-06-09 07:51:55,0.05,0.17,0.00,30.26,34.59,37.43,14.18,45.46,1021.51,2003.78,3470.98,3037.00,3452.99,600.18,584.59,1.81,0000 0000 0000 0000 000000
2016-06-09 07:56:56,0.01,0.17,0.00,30.21,34.56,37.38,14.13,45.49,1021.56,2003.97,3470.73,3037.00,3452.99,599.91,584.50,1.87,0000 0000 0000 0000 000000
2016-06-09 08:01:58,0.02,0.17,0.00,30.19,34.52,37.35,14.16,45.38,1021.69,2003.99,3470.12,3036.96,3452.74,599.98,584.80,1.92,0000 0000 0000 0000 000000
2016-06-09 08:06:59,0.00,0.17,0.00,30.15,34.48,37.31,14.16,45.35,1021.96,2004.02,3470.00,3036.94,3452.38,599.95,584.99,1.97,0000 0000 0000 0000 000000
2016-06-09 08:12:00,0.04,0.17,0.00,30.11,34.44,37.24,14.19,45.40,1021.93,2004.24,3470.00,3036.67,3452.10,599.83,584.98,2.02,0000 0000 0000 0000 000000
2016-06-09 08:17:02,0.07,0.17,0.00,30.05,34.40,37.21,14.23,45.52,1021.70,2004.79,3469.56,3036.14,3452.01,600.16,585.24,2.07,0000 0000 0000 0000 000000
2016-06-09 08:22:03,0.01,0.17,0.00,30.03,34.36,37.19,14.20,45.42,1021.64,2004.96,3469.01,3036.00,3451.93,599.93,584.94,2.12,0000 0000 0000 0000 000000
2016-06-09 08:27:04,0.01,0.17,0.00,29.99,34.32,37.14,14.20,45.55,1021.51,2004.99,3468.75,3036.00,3451.72,600.31,585.34,2.17,0000 0000 0000 0000 000000
2016-06-09 08:32:05,0.03,0.18,0.00,29.95,34.28,37.11,14.25,45.79,1021.50,2004.99,3467.84,3035.68,3451.06,599.99,585.12,2.22,0000 0000 0000 0000 000000
2016-06-09 08:37:06,0.06,0.18,0.00,29.92,34.24,37.07,14.18,45.49,1021.82,2005.09,3466.45,3035.02,3450.54,599.82,585.19,2.27,0000 0000 0000 0000 000000
2016-06-09 08:42:08,0.09,0.18,0.00,29.88,34.21,37.05,14.20,45.58,1021.70,2005.51,3465.28,3034.43,3449.70,600.01,585.42,2.32,0000 0000 0000 0000 000000
2016-06-09 08:47:09,0.08,0.19,0.00,29.85,34.17,36.98,14.17,45.56,1021.51,2005.92,3463.72,3033.53,3448.72,599.77,585.14,2.37,0000 0000 0000 0000 000000
2016-06-09 08:52:11,0.09,0.19,0.00,29.84,34.13,36.97,14.16,45.54,1021.51,2005.98,3461.74,3032.20,3447.33,599.93,585.40,2.42,0000 0000 0000 0000 000000
2016-06-09 08:57:12,0.01,0.19,0.00,29.81,34.09,36.92,14.20,45.74,1021.77,2005.99,3460.97,3031.92,3446.97,599.98,585.58,2.47,0000 0000 0000 0000 000000
2016-06-09 09:02:13,0.04,0.20,0.00,29.77,34.06,36.89,14.22,45.72,1021.65,2005.99,3460.57,3031.45,3446.48,599.96,585.57,2.52,0000 0000 0000 0000 000000
2016-06-09 09:07:14,0.03,0.20,0.00,29.74,34.02,36.84,14.19,45.65,1021.72,2006.13,3460.02,3031.01,3446.00,599.94,585.67,2.57,0000 0000 0000 0000 000000
2016-06-09 09:12:15,0.08,0.20,0.00,29.69,33.99,36.81,14.17,45.64,1021.92,2006.55,3459.62,3030.66,3445.34,599.53,585.46,2.62,0000 0000 0000 0000 000000
2016-06-09 09:17:17,0.04,0.20,0.00,29.67,33.96,36.80,14.18,45.70,1021.98,2006.92,3459.06,3030.13,3445.00,599.79,585.78,2.67,0000 0000 0000 0000 000000
2016-06-09 09:22:18,0.00,0.21,0.00,29.63,33.92,36.75,14.22,45.75,1021.86,2006.99,3458.99,3030.00,3445.00,599.89,585.90,2.72,0000 0000 0000 0000 000000
2016-06-09 09:27:19,0.01,0.21,0.00,29.62,33.88,36.72,14.24,45.89,1021.89,2006.99,3458.69,3029.99,3444.77,600.06,586.16,2.77,0000 0000 0000 0000 000000
2016-06-09 09:32:21,0.04,0.21,0.00,29.57,33.84,36.68,14.19,45.67,1021.82,2007.01,3457.97,3029.36,3444.05,599.87,585.91,2.82,0000 0000 0000 0000 000000
2016-06-09 09:37:22,0.05,0.21,0.00,29.53,33.81,36.64,14.24,45.70,1021.99,2007.27,3457.19,3029.01,3443.89,599.77,585.99,2.87,0000 0000 0000 0000 000000
2016-06-09 09:42:23,0.14,0.21,0.00,29.48,33.77,36.61,14.23,45.57,1022.00,2007.78,3455.48,3028.17,3442.61,600.18,586.69,2.92,0000 0000 0000 0000 000000
2016-06-09 09:47:24,0.36,0.23,0.00,29.44,33.73,36.59,14.38,45.81,1022.01,2007.97,3446.84,3024.19,3438.28,600.18,586.68,2.97,0000 0000 0000 0000 000000
2016-06-09 09:52:25,0.33,0.25,0.00,29.40,33.69,36.53,14.16,45.33,1022.03,2007.99,3436.92,3019.91,3433.56,599.65,586.08,3.02,0000 0000 0000 0000 000000
2016-06-09 09:57:27,0.20,0.26,0.00,29.36,33.65,36.50,14.19,45.49,1022.19,2008.00,3429.80,3016.92,3430.23,600.06,586.78,3.07,0000 0000 0000 0000 000000
2016-06-09 10:02:28,0.08,0.27,0.00,29.31,33.60,36.46,14.27,45.64,1022.17,2008.02,3427.00,3015.80,3428.84,600.14,586.85,3.12,0000 0000 0000 0000 000000
2016-06-09 10:07:30,0.13,0.27,0.00,29.26,33.56,36.41,14.17,45.28,1022.03,2008.16,3423.78,3014.51,3427.46,599.99,586.76,3.17,0000 0000 0000 0000 000000
2016-06-09 10:12:31,0.06,0.28,0.00,29.22,33.51,36.38,14.25,45.58,1022.01,2008.59,3422.34,3014.00,3427.00,599.86,586.59,3.22,0000 0000 0000 0000 000000
2016-06-09 10:17:33,0.02,0.28,0.00,29.17,33.47,36.34,14.20,45.38,1022.00,2008.95,3422.01,3014.00,3427.00,599.89,586.91,3.27,0000 0000 0000 0000 000000
2016-06-09 10:22:34,0.01,0.28,0.00,29.13,33.43,36.30,14.20,45.38,1022.00,2008.99,3421.38,3013.99,3426.95,599.85,586.89,3.32,0000 0000 0000 0000 000000
2016-06-09 10:27:35,0.00,0.28,0.00,29.07,33.39,36.26,14.24,45.28,1022.01,2009.02,3420.99,3013.98,3426.91,599.80,587.01,3.37,0000 0000 0000 0000 000000
2016-06-09 10:32:36,0.04,0.28,0.00,29.03,33.34,36.21,14.26,45.17,1022.00,2009.20,3420.50,3013.92,3426.57,600.29,587.46,3.42,0000 0000 0000 0000 000000
2016-06-09 10:37:37,0.10,0.29,0.00,28.99,33.30,36.17,14.20,45.39,1022.03,2009.83,3419.79,3013.32,3426.06,600.13,587.38,3.47,0000 0000 0000 0000 000000
2016-06-09 10:42:39,0.03,0.29,0.00,28.95,33.25,36.13,14.30,45.52,1022.05,2009.98,3418.66,3012.98,3425.70,600.35,587.86,3.52,0000 0000 0000 0000 000000
2016-06-09 10:47:40,0.11,0.29,0.00,28.90,33.21,36.08,14.30,45.59,1022.10,2009.99,3416.75,3011.71,3424.29,599.78,587.34,3.57,0000 0000 0000 0000 000000
2016-06-09 10:52:41,0.17,0.30,0.00,28.84,33.17,36.03,14.23,45.53,1022.32,2010.02,3412.48,3008.85,3421.26,599.98,587.77,3.62,0000 0000 0000 0000 000000
2016-06-09 10:57:42,0.03,0.30,0.00,28.80,33.13,35.99,14.26,45.39,1022.47,2010.28,3412.00,3008.60,3420.99,599.87,587.88,3.67,0000 0000 0000 0000 000000
2016-06-09 11:02:43,0.09,0.31,0.00,28.76,33.08,35.93,14.39,45.63,1022.47,2010.84,3411.16,3008.08,3420.41,600.28,588.28,3.72,0000 0000 0000 0000 000000
2016-06-09 11:07:45,0.08,0.31,0.00,28.71,33.04,35.91,14.24,45.23,1022.44,2010.99,3409.23,3007.07,3419.08,599.91,587.97,3.77,0000 0000 0000 0000 000000
2016-06-09 11:12:46,0.00,0.31,0.00,28.65,33.00,35.87,14.28,45.38,1022.48,2011.00,3408.99,3006.98,3418.96,599.93,588.41,3.82,0000 0000 0000 0000 000000
2016-06-09 11:17:47,0.00,0.31,0.00,28.62,32.96,35.83,14.31,45.50,1022.48,2011.06,3408.99,3006.99,3418.99,600.20,588.46,3.87,0000 0000 0000 0000 000000
2016-06-09 11:22:49,0.06,0.32,0.00,28.56,32.92,35.78,14.25,45.33,1022.48,2011.63,3408.99,3006.99,3418.99,599.52,587.94,3.92,0000 0000 0000 0000 000000
2016-06-09 11:27:50,0.01,0.32,0.00,28.52,32.87,35.73,14.37,45.42,1022.48,2011.94,3408.99,3006.99,3419.00,600.35,588.83,3.97,0000 0000 0000 0000 000000
2016-06-09 11:32:51,0.00,0.32,0.00,28.48,32.83,35.70,14.21,45.38,1022.48,2011.99,3408.99,3007.02,3419.03,599.79,588.43,4.02,0000 0000 0000 0000 000000
2016-06-09 11:37:52,-0.01,0.32,0.00,28.44,32.79,35.65,14.28,45.36,1022.48,2011.99,3408.99,3007.18,3419.41,599.76,588.52,4.07,0000 0000 0000 0000 000000
2016-06-09 11:42:54,-0.01,0.32,0.00,28.39,32.74,35.63,14.26,45.21,1022.48,2012.02,3409.00,3007.63,3419.86,599.77,588.68,4.12,0000 0000 0000 0000 000000
2016-06-09 11:47:55,0.01,0.32,0.00,28.35,32.70,35.55,14.30,45.50,1022.48,2012.19,3409.00,3007.89,3419.95,600.11,588.99,4.18,0000 0000 0000 0000 000000
2016-06-09 11:52:57,0.05,0.32,0.00,28.30,32.65,35.52,14.33,45.72,1022.48,2012.71,3409.00,3007.95,3419.98,600.05,589.12,4.23,0000 0000 0000 0000 000000
2016-06-09 11:57:58,0.01,0.32,0.00,28.25,32.61,35.46,14.17,45.08,1022.48,2012.97,3409.00,3007.99,3419.99,600.06,588.97,4.28,0000 0000 0000 0000 000000
2016-06-09 12:02:59,0.00,0.32,0.00,28.20,32.57,35.43,14.34,45.42,1022.48,2012.99,3409.00,3007.99,3419.99,600.14,589.23,4.33,0000 0000 0000 0000 000000
2016-06-09 12:08:01,0.00,0.32,0.00,28.17,32.52,35.38,14.34,45.44,1022.48,2013.02,3409.00,3008.00,3420.03,599.70,588.83,4.38,0000 0000 0000 0000 000000
2016-06-09 12:13:02,0.02,0.32,0.00,28.13,32.48,35.35,14.33,45.34,1022.48,2013.24,3409.01,3008.02,3420.16,600.15,589.44,4.43,0000 0000 0000 0000 000000
2016-06-09 12:18:03,0.07,0.33,0.00,28.08,32.44,35.31,14.27,45.38,1022.48,2013.72,3408.16,3008.00,3420.02,599.74,589.05,4.48,0000 0000 0000 0000 000000
2016-06-09 12:23:04,0.01,0.33,0.00,28.04,32.39,35.26,14.29,45.36,1022.44,2013.97,3407.91,3007.99,3419.99,599.80,589.34,4.53,0000 0000 0000 0000 000000
2016-06-09 12:28:06,0.00,0.33,0.00,27.99,32.35,35.20,14.32,45.23,1022.38,2013.99,3407.98,3007.99,3420.00,600.10,589.55,4.58,0000 0000 0000 0000 000000
2016-06-09 12:33:07,0.00,0.33,0.00,27.95,32.30,35.15,14.25,45.52,1022.13,2014.01,3407.98,3008.01,3420.06,599.73,589.29,4.63,0000 0000 0000 0000 000000
2016-06-09 12:38:08,0.02,0.33,0.00,27.91,32.26,35.10,14.31,45.73,1021.99,2014.16,3407.98,3008.02,3420.08,600.08,589.49,4.68,0000 0000 0000 0000 000000
2016-06-09 12:43:09,0.05,0.33,0.00,27.86,32.21,35.07,14.31,45.54,1021.99,2014.74,3407.57,3008.01,3420.09,599.98,589.45,4.73,0000 0000 0000 0000 000000
2016-06-09 12:48:10,0.12,0.34,0.00,27.81,32.17,35.04,14.37,45.61,1021.99,2014.97,3404.38,3007.08,3418.96,600.30,589.86,4.78,0000 0000 0000 0000 000000
2016-06-09 12:53:12,0.00,0.34,0.00,27.77,32.13,35.00,14.32,45.31,1021.99,2015.00,3403.96,3007.00,3418.94,599.98,589.68,4.83,0000 0000 0000 0000 000000
2016-06-09 12:58:13,0.01,0.34,0.00,27.74,32.08,34.93,14.36,45.69,1021.98,2015.08,3403.91,3007.00,3418.97,600.19,589.92,4.88,0000 0000 0000 0000 000000
2016-06-09 13:03:14,0.06,0.34,0.00,27.73,32.04,34.89,14.35,45.51,1021.94,2015.68,3403.92,3007.01,3418.99,600.25,589.92,4.93,0000 0000 0000 0000 000000
2016-06-09 13:08:15,0.01,0.34,0.00,27.69,32.00,34.88,14.30,45.68,1021.77,2015.97,3403.96,3007.02,3418.99,599.96,589.79,4.98,0000 0000 0000 0000 000000
2016-06-09 13:13:17,-0.00,0.34,0.00,27.66,31.96,34.82,14.28,45.67,1021.87,2015.99,3403.95,3007.11,3419.01,600.20,590.01,5.03,0000 0000 0000 0000 000000